Mitsukawa Maru — JD2495 — position and weather

sailwx.info

Track history (hours):
 
Tides and Currents Weather Stations Pressure Air Temp Water Temp Dewpoint Dewpoint Depression Visibility Wind Speed Wind Dir Waves Ship Positions

Mitsukawa Maru

Last reported at 2015-Feb-02 15:19 UTC. Time now 2015-Mar-02 03:39 UTC.
Position N 34°47' E 139°11'.
Warning: this ship's position is 27 days out of date.

Length 105 m; draft 4.2 m.

Type: Cargo ship. MMSI: 431000326.

Date/timePositionNaut miles runAvg speedWind from/ knotsBaromVisibWave heightAir tempDewpointWater temp
2015-Feb-02 15:19N 34°47' E 139°11'912.0
2015-Feb-02 14:33N 34°53' E 139°18'1312.9
2015-Feb-02 13:33N 35°01' E 139°31'1313.6
2015-Feb-02 12:33N 35°10' E 139°44'1212.0
2015-Feb-02 11:34N 35°21' E 139°42'1313.1
2015-Feb-02 10:33N 35°31' E 139°54'5 0.3
2015-Feb-01 16:19N 35°33' E 139°59'912.0
2015-Feb-01 15:33N 35°28' E 139°50'1110.9
2015-Feb-01 14:34N 35°18' E 139°45'1110.8
2015-Feb-01 13:34N 35°07' E 139°45'1211.7
2015-Feb-01 12:31N 34°59' E 139°35'1913.3
2015-Feb-01 11:04N 34°47' E 139°16'  
2015-Jan-29 17:31N 34°46' E 139°10'1512.6
2015-Jan-29 16:18N 34°56' E 139°24'912.6
2015-Jan-29 15:33N 35°02' E 139°33'1413.5
2015-Jan-29 14:34N 35°11' E 139°45'1212.1
2015-Jan-29 13:34N 35°23' E 139°42'1313.1
2015-Jan-29 12:33N 35°31' E 139°55'3 0.1
2015-Jan-28 13:31N 35°29' E 139°52'1111.7
2015-Jan-28 12:33N 35°20' E 139°44'1110.9
2015-Jan-28 11:33N 35°09' E 139°46'1110.9
2015-Jan-28 10:33N 35°01' E 139°38'1211.8
2015-Jan-28 09:31N 34°53' E 139°26'1412.9
2015-Jan-28 08:24N 34°44' E 139°12'213 4.9
2015-Jan-26 12:33N 34°12' E 134°57'1514.3
2015-Jan-26 11:32N 34°26' E 135°01'1110.8
2015-Jan-26 10:33N 34°36' E 134°58'1614.9
2015-Jan-26 09:28N 34°30' E 134°40'  
Track history (hours):
 
Tides and Currents Weather Stations Pressure Air Temp Water Temp Dewpoint Dewpoint Depression Visibility Wind Speed Wind Dir Waves Ship Positions

Mitsukawa Maru

Last reported at 2015-Feb-02 15:19 UTC. Time now 2015-Mar-02 03:39 UTC.
Position N 34°47' E 139°11'.
Warning: this ship's position is 27 days out of date.

Length 105 m; draft 4.2 m.

Type: Cargo ship. MMSI: 431000326.

Date/timePositionNaut miles runAvg speedWind from/ knotsBaromVisibWave heightAir tempDewpointWater temp
2015-Feb-02 15:19N 34°47' E 139°11'912.0
2015-Feb-02 14:33N 34°53' E 139°18'1312.9
2015-Feb-02 13:33N 35°01' E 139°31'1313.6
2015-Feb-02 12:33N 35°10' E 139°44'1212.0
2015-Feb-02 11:34N 35°21' E 139°42'1313.1
2015-Feb-02 10:33N 35°31' E 139°54'5 0.3
2015-Feb-01 16:19N 35°33' E 139°59'912.0
2015-Feb-01 15:33N 35°28' E 139°50'1110.9
2015-Feb-01 14:34N 35°18' E 139°45'1110.8
2015-Feb-01 13:34N 35°07' E 139°45'1211.7
2015-Feb-01 12:31N 34°59' E 139°35'1913.3
2015-Feb-01 11:04N 34°47' E 139°16'  
2015-Jan-29 17:31N 34°46' E 139°10'1512.6
2015-Jan-29 16:18N 34°56' E 139°24'912.6
2015-Jan-29 15:33N 35°02' E 139°33'1413.5
2015-Jan-29 14:34N 35°11' E 139°45'1212.1
2015-Jan-29 13:34N 35°23' E 139°42'1313.1
2015-Jan-29 12:33N 35°31' E 139°55'3 0.1
2015-Jan-28 13:31N 35°29' E 139°52'1111.7
2015-Jan-28 12:33N 35°20' E 139°44'1110.9
2015-Jan-28 11:33N 35°09' E 139°46'1110.9
2015-Jan-28 10:33N 35°01' E 139°38'1211.8
2015-Jan-28 09:31N 34°53' E 139°26'1412.9
2015-Jan-28 08:24N 34°44' E 139°12'213 4.9
2015-Jan-26 12:33N 34°12' E 134°57'1514.3
2015-Jan-26 11:32N 34°26' E 135°01'1110.8
2015-Jan-26 10:33N 34°36' E 134°58'1614.9
2015-Jan-26 09:28N 34°30' E 134°40'  

Dump ship's entire track history